Дянев

Туркменистан     39°15′36″N   63°11′20″E
В апреле 2022 года жителям России запретили посещать сайт meteo.paraplan.net по решению Генеральной прокуратуры. Аудитория сайта уменьшилась в 10 раз. Владельцы сайта не видят смысла в поддержке погодного сервера в таких условиях. Сайт будет закрыт в октябре.
темп.,
°C
ветер,
м/с
пор.,
м/с
влажн.,
%
обл.,
%
осадки,
мм/ч
давл.,
гПа
погр.,
м
26 сентября, пн
пн2623:00+24св22140 0.0 101211
02:00+22юз11170 0.0 101211
05:00+22зсз45150 0.0 101440
08:00+20ссз711580 0.0 1016292
11:00+26с910340 0.0 1017794
14:00+30с99250 0.0 10171292
17:00+28с99280 0.0 10171410
20:00+25с813240 0.0 1018387
27 сентября, вт
вт2723:00+22с713230 0.0 1019322
02:00+20с714300 0.0 1019312
05:00+17с612320 0.0 1019249
08:00+18ссв713270 0.0 1019378
11:00+25ссв88170 0.0 1018819
14:00+28ссв88110 0.0 10161335
17:00+27ссв78110 0.0 10151324
20:00+21св57170 0.0 101688
28 сентября, ср
ср2823:00+19ссв510210 0.0 1016142
02:00+17ссв511230 0.0 1014188
05:00+16ссв512260 0.0 1014202
08:00+18св714260 0.0 1014371
11:00+25св89161 0.0 1014828
14:00+29ссв77120 0.0 10121258
17:00+28ссв78110 0.0 10111272
20:00+22ссв510205 0.0 1012130
29 сентября, чт
чт2923:00+19ссв511255 0.0 1011158
02:00+17ссв510260 0.0 1011147
05:00+16ссв46300 0.0 101074
08:00+17ссв47300 0.0 1011179
11:00+26св56170 0.0 1011659
14:00+31ссв55120 0.0 10091264
17:00+30ссв661225 0.0 10081236
20:00+23ссв6111995 0.0 1010144
30 сентября, пт
пт3023:00+21ссв5112181 0.0 1010163
02:00+19ссв510237 0.0 1010159
05:00+17ссв472678 0.0 1011100
08:00+19ссв611255 0.0 1012269
11:00+27ссв77150 0.0 1013696
14:00+30ссв66100 0.0 10121245
17:00+29ссв7711100 0.0 10121142
20:00+22ссв611206 0.0 1014200